Regional Weather Roundup
Issued by NWS

Home | Current Version | Previous Version | Text Only | Print | Product List | Glossary On
Versions: 1 2 3 4 5 6 7 8 9 10 11 12 13 14 15 16 17 18 19 20 21 22 23 24 25 26 27 28 29 30 31 32 33 34 35 36 37 38 39 40 41 42 43 44 45 46 47 48 49 50
000
ASUS43 KMKX 261321
RWRWI

WISCONSIN REGIONAL WEATHER ROUNDUP
NATIONAL WEATHER SERVICE MILWAUKEE/SULLIVAN WI
800 AM CDT MON SEP 26 2016

NOTE: "FAIR" INDICATES FEW OR NO CLOUDS BELOW 12,000 FEET WITH NO
SIGNIFICANT WEATHER AND/OR OBSTRUCTIONS TO VISIBILITY.

WIZ001-002-006>008-014>016-023>028-261400-
NORTHWEST WISCONSIN

CITY           SKY/WX    TMP DP  RH WIND       PRES   REMARKS
SUPERIOR ARPT  CLOUDY    51  46  82 W14G22    29.74S
ASHLAND        LGT RAIN  50  47  89 SW14G24   29.69S
HAYWARD        CLOUDY    49  46  90 W7G17     29.77F
SIREN          CLOUDY    50  41  70 W16G24    29.84S
CUMBERLAND     CLOUDY    48  39  71 W21G26    29.84S
RICE LAKE      CLOUDY    51  41  69 W13G18    29.86R
CHETEK         NOT AVBL
LADYSMITH      CLOUDY    52  44  75 W15       29.81S
EAU CLAIRE     CLOUDY    51  42  71 W15       29.87S
MENOMONIE      PTCLDY    51  42  72 W13G20    29.89S
NEW RICHMOND   MOCLDY    50  40  68 W16G22    29.90S
OSCEOLA        PTCLDY    51  41  66 W14       29.92F
$$

WIZ003>005-009-010-017-018-261400-
NORTH CENTRAL WISCONSIN

CITY           SKY/WX    TMP DP  RH WIND       PRES   REMARKS
MANITOWISH WTR NOT AVBL
ARBOR VITAE    DRIZZLE   51  49  93 W17G25    29.72S
WOODRUFF       DRIZZLE   51  49  93 W17G25    29.72S
RHINELANDER    CLOUDY    49  48  97 W21G28    29.74S
EAGLE RIVER    DRIZZLE   48  47  97 W13G20    29.70S
LAND O LAKES   DRIZZLE   48  47  94 W9G17     29.69F
PHILLIPS       DRIZZLE   47  46  97 SW14G20   29.75F
TOMAHAWK       DRIZZLE   48  44  87 W10G22    29.77F
MEDFORD        CLOUDY    49  46  90 W15G23    29.80F
MERRILL        CLOUDY    51  44  78 W15       29.79S
$$

WIZ029-030-035-036-043>047-261400-
CENTRAL WISCONSIN

CITY           SKY/WX    TMP DP  RH WIND       PRES   REMARKS
WAUSAU         CLOUDY    51  43  74 W14G23    29.80R
MOSINEE        PTSUNNY   50  45  81 W20       29.83S
MARSHFIELD     MOSUNNY   51  43  74 W16       29.84S
STEVENS POINT  MOSUNNY   49  43  79 W15G22    29.85S
WAUPACA        SUNNY     55  46  69 SW14G20   29.86R
WAUTOMA        MOSUNNY   54  45  71 W14       29.89
WISC RAPIDS    SUNNY     52  45  77 W9G23     29.88S
CAMP DOUGLAS   MOSUNNY   52  45  76 SW14G21   29.91S
$$

WIZ011>013-019>022-031-037>040-048>050-261400-
NORTHEAST WISCONSIN

CITY           SKY/WX    TMP DP  RH WIND       PRES   REMARKS
ANTIGO         DRIZZLE   48  46  93 W14       29.78S
SHAWANO        CLOUDY    55  46  70 SW10G20   29.79F
OCONTO         NOT AVBL
STURGEON BAY   MOSUNNY   54  45  71 SW18G24   29.78F
GREEN BAY      CLOUDY    54  47  77 SW10G24   29.81F
MANITOWOC      CLOUDY    56  45  66 MISG      29.84F
APPLETON       MOSUNNY   52  43  71 W17G23    29.84S
CLINTONVILLE   NOT AVBL
OSHKOSH        SUNNY     54  45  71 W10G21    29.86S
$$

WIZ032>034-041-042-053>061-261400-
SOUTHWEST WISCONSIN

CITY           SKY/WX    TMP DP  RH WIND       PRES   REMARKS
LA CROSSE      MOSUNNY   56  42  59 W16G26    29.95S
SPARTA         SUNNY     51  44  79 W9        29.94R
VIROQUA        SUNNY     49  43  79 W6        29.96S
BOSCOBEL       MOSUNNY   53  44  71 SW7       30.00R
PRAIRIE DU CHI SUNNY     53  41  63 W10       30.01S
PLATTEVILLE    SUNNY     52  46  80 W12       30.02S
$$

WIZ056-057-062-063-064-067-068-261400-
SOUTH CENTRAL WISCONSIN

CITY           SKY/WX    TMP DP  RH WIND       PRES   REMARKS
REEDSBURG      NOT AVBL
BARABOO/DELLS  SUNNY     52  42  70 W12G17    29.94S
LONE ROCK      SUNNY     53  44  71 W8        29.98S
MINERAL POINT  SUNNY     52  45  76 W9        30.00S
MADISON        MOSUNNY   53  45  74 VRB7      29.95S
MIDDLETON      NOT AVBL
WATERTOWN      SUNNY     54  48  82 SW8       29.94S
MONROE         SUNNY     52  45  76 SW15      29.99S
JANESVILLE     SUNNY     55  46  71 W12       29.98S
$$

WIZ051-052-058>065-066-070>072-261400-
SOUTHEAST WISCONSIN

CITY           SKY/WX    TMP DP  RH WIND       PRES   REMARKS
MILWAUKEE      PTSUNNY   57  48  72 SW12      29.94S
WAUKESHA       SUNNY     52  46  82 W12G17    29.95S
MILWAUKEE/TIMM SUNNY     54  46  76 SW14      29.94S
RACINE         CLOUDY    56  48  74 W8        29.96S
BURLINGTON     SUNNY     53  46  78 W9        29.97R
KENOSHA        PTSUNNY   55  48  77 W13       29.96S
FOND DU LAC    SUNNY     54  46  74 SW9       29.89F
SHEBOYGAN      SUNNY     55  46  71 W14       29.87F
WEST BEND      SUNNY     54  46  76 W15       29.91R
JUNEAU         SUNNY     52  46  80 SW13      29.94S
$$

LSZ147-162-261400-
LAKE SUPERIOR

STATION/POSITION TIME  TEMP    WIND        PRES    WAVE
                       AIR SEA DIR/SP/G            HT/PER
                 (UTC) (F)     (DEG/KT/KT) (MB)    (FT/S)
W MID LAKE BUOY  1250   55 58  260/ 27/ 33  999.2F   8/ 6
DEVILS ISLAND    1300   54     260/ 28/ 38 1002.6R
SAXON HARBOR     1200   52     220/  8/ 16 1004.7
$$

LMZ867-665-643>646-261400-
LAKE MICHIGAN

STATION/POSITION TIME  TEMP    WIND        PRES    WAVE
                       AIR SEA DIR/SP/G            HT/PER
                 (UTC) (F)     (DEG/KT/KT) (MB)    (FT/S)
CHAMBERS ISLAND  1200   54     220/ 11/ 20 1007.5S
S GREEN BAY BUOY 1130   57 65  230/ 21/ 27 1008.7
N MID LAKE BUOY  1250   58 67  240/ 23/ 29 1005.8S   5/ 5
NORTHPORT PIER   1100   57     270/  7/ 16 1007.5S
KEWAUNEE LAKESHO 1200   54     250/  9/ 16 1009.4F
SHEBOYGAN LAKESH 1300   56     240/ 13/ 16 1011.2F
PORT WASHINGTON  1240   56     250/  8/ 13 1013.2S
ATWATER BUOY     1300   57 54  230/ 12/ 16 1013.0F
MILWAUKEE LAKESH 1310   57     260/ 13/ 19   N/A
S MID LAKE BUOY  1250   63 71  260/ 21/ 25 1012.8F   5/ 5
KENOSHA   LAKESH 1300   58     250/ 11/ 14 1014.6R
$$

TC  - TEMPERATURE IN CELSIUS
VSB - VISIBILITY IN STATUTE MILES
WCI - WIND CHILL INDEX
HX  - HEAT INDEX





USA.gov is the U.S. government's official web portal to all federal, state and local government web resources and services.